C/2013 TW5 ( Spacewatch )

Japanese version
Home page
Updated on May 7, 2016

---------------------------------------------------------------------

* Profile

Discovery Date October 3, 2013
Magnitude 19.6 mag
Discoverer T. H. Bressi (Spacewatch)

* Pictures

* Orbital Elements

Epoch 2014 Aug. 11.0 TT = JDT 2456880.5
T 2014 Aug. 17.83962 TT                                 MPCW
q   5.8305708            (2000.0)            P               Q
z  +0.0023504      Peri.  190.39191     -0.84977806     -0.40534958
 +/-0.0000007      Node   319.70476     +0.51328005     -0.49062579
e   0.9862960      Incl.   31.40511     +0.12008681     -0.77134820
From 411 observations 2013 Oct. 3-2016 Mar. 30, mean residual 0".4.

* Magnitudes Graph

        m1 = -2.2 + 5 log d + 20.0 log r(t - 150)

---------------------------------------------------------------------

The orbital elements are published on M.P.E.C. 2016-H35.
The magnitudes graphs are made with Comet for Windows.

---------------------------------------------------------------------

Copyright(C) Seiichi Yoshida (comet@aerith.net). All rights reserved.